Time,TemperatureF,DewpointF,PressureIn,WindDirection,WindDirectionDegrees,WindSpeedMPH,WindSpeedGustMPH,Humidity,HourlyPrecipIn,Conditions,Clouds,dailyrainin,SolarRadiationWatts/m^2,SoftwareType,DateUTC
2013-05-12 00:02:00,65.0,62.0,-100.00,NNW,345,5.0,9.0,91,0.00,,,0.00,0.000000,,2013-05-12 05:02:00,
2013-05-12 00:32:00,64.0,62.0,-100.00,North,355,5.0,8.0,94,0.00,,,0.00,0.000000,,2013-05-12 05:32:00,
2013-05-12 00:42:00,64.0,62.0,-100.00,North,355,5.0,8.0,94,0.00,,,0.00,0.000000,,2013-05-12 05:42:00,
2013-05-12 00:52:00,64.0,62.0,-100.00,North,355,5.0,8.0,94,0.00,,,0.00,0.000000,,2013-05-12 05:52:00,
2013-05-12 01:01:00,64.0,62.0,-100.00,North,355,5.0,8.0,94,0.00,,,0.00,0.000000,,2013-05-12 06:01:00,
2013-05-12 01:32:00,63.0,61.0,-100.00,North,11,5.0,9.0,94,0.00,,,0.00,0.000000,,2013-05-12 06:32:00,
2013-05-12 01:42:00,63.0,61.0,-100.00,North,11,5.0,9.0,94,0.00,,,0.00,0.000000,,2013-05-12 06:42:00,
2013-05-12 01:52:00,63.0,61.0,-100.00,North,11,5.0,9.0,94,0.00,,,0.00,0.000000,,2013-05-12 06:52:00,
2013-05-12 02:01:00,63.0,61.0,-100.00,North,11,5.0,9.0,94,0.00,,,0.00,0.000000,,2013-05-12 07:01:00,
2013-05-12 02:32:00,62.0,60.0,-100.00,North,5,4.0,8.0,94,0.00,,,0.00,0.000000,,2013-05-12 07:32:00,
2013-05-12 02:42:00,62.0,60.0,-100.00,North,5,4.0,8.0,94,0.00,,,0.00,0.000000,,2013-05-12 07:42:00,
2013-05-12 02:52:00,62.0,60.0,-100.00,North,5,4.0,8.0,94,0.00,,,0.00,0.000000,,2013-05-12 07:52:00,
2013-05-12 03:02:00,62.0,60.0,-100.00,North,5,4.0,8.0,94,0.00,,,0.00,0.000000,,2013-05-12 08:02:00,
2013-05-12 03:32:00,61.0,60.0,-100.00,North,4,4.0,7.0,95,0.00,,,0.00,0.000000,,2013-05-12 08:32:00,
2013-05-12 03:42:00,61.0,60.0,-100.00,North,4,4.0,7.0,95,0.00,,,0.00,0.000000,,2013-05-12 08:42:00,
2013-05-12 03:53:00,61.0,60.0,-100.00,North,4,4.0,7.0,95,0.00,,,0.00,0.000000,,2013-05-12 08:53:00,
2013-05-12 04:01:00,61.0,60.0,-100.00,North,4,4.0,7.0,95,0.00,,,0.00,0.000000,,2013-05-12 09:01:00,
2013-05-12 04:33:00,60.0,59.0,-100.00,North,5,6.0,8.0,96,0.00,,,0.00,0.000000,,2013-05-12 09:33:00,
2013-05-12 04:43:00,60.0,59.0,-100.00,North,5,6.0,8.0,96,0.00,,,0.00,0.000000,,2013-05-12 09:43:00,
2013-05-12 04:53:00,60.0,59.0,-100.00,North,5,6.0,8.0,96,0.00,,,0.00,0.000000,,2013-05-12 09:53:00,
2013-05-12 05:03:00,60.0,59.0,-100.00,North,5,6.0,8.0,96,0.00,,,0.00,0.000000,,2013-05-12 10:03:00,
2013-05-12 05:33:00,60.0,59.0,-100.00,North,353,4.0,8.0,96,0.00,,,0.00,0.000000,,2013-05-12 10:33:00,
2013-05-12 05:42:00,60.0,59.0,-100.00,North,353,4.0,8.0,96,0.00,,,0.00,0.000000,,2013-05-12 10:42:00,
2013-05-12 05:52:00,60.0,59.0,-100.00,North,353,4.0,8.0,96,0.00,,,0.00,0.000000,,2013-05-12 10:52:00,
2013-05-12 06:02:00,60.0,59.0,-100.00,North,353,4.0,8.0,96,0.00,,,0.00,0.000000,,2013-05-12 11:02:00,
2013-05-12 06:32:00,58.0,57.0,-100.00,NNE,28,4.0,6.0,97,0.00,,,0.00,0.000000,,2013-05-12 11:32:00,
2013-05-12 06:42:00,58.0,57.0,-100.00,NNE,28,4.0,6.0,97,0.00,,,0.00,0.000000,,2013-05-12 11:42:00,
2013-05-12 06:52:00,58.0,57.0,-100.00,NNE,28,4.0,6.0,97,0.00,,,0.00,0.000000,,2013-05-12 11:52:00,
2013-05-12 07:02:00,58.0,57.0,-100.00,NNE,28,4.0,6.0,97,0.00,,,0.00,0.000000,,2013-05-12 12:02:00,
2013-05-12 08:32:00,61.0,60.0,-100.00,North,355,6.0,11.0,97,-99.99,,,0.00,69.000000,,2013-05-12 13:32:00,
2013-05-12 08:42:00,61.0,60.0,-100.00,North,355,6.0,11.0,97,-99.99,,,0.00,69.000000,,2013-05-12 13:42:00,
2013-05-12 08:52:00,61.0,60.0,-100.00,North,355,6.0,11.0,97,-99.99,,,0.00,69.000000,,2013-05-12 13:52:00,
2013-05-12 09:01:00,61.0,60.0,-100.00,North,355,6.0,11.0,97,-99.99,,,0.00,69.000000,,2013-05-12 14:01:00,
2013-05-12 09:32:00,67.0,62.0,-100.00,North,9,4.0,9.0,85,0.00,,,0.00,114.000000,,2013-05-12 14:32:00,
2013-05-12 09:42:00,67.0,62.0,-100.00,North,9,4.0,9.0,85,0.00,,,0.00,114.000000,,2013-05-12 14:42:00,
2013-05-12 09:52:00,67.0,62.0,-100.00,North,9,4.0,9.0,85,0.00,,,0.00,114.000000,,2013-05-12 14:52:00,
2013-05-12 10:01:00,67.0,62.0,-100.00,North,9,4.0,9.0,85,0.00,,,0.00,114.000000,,2013-05-12 15:01:00,
2013-05-12 10:34:00,72.0,64.0,-100.00,North,2,5.0,11.0,75,0.00,,,-99.99,332.000000,,2013-05-12 15:34:00,
2013-05-12 10:42:00,72.0,64.0,-100.00,North,2,5.0,11.0,75,0.00,,,-99.99,332.000000,,2013-05-12 15:42:00,
2013-05-12 10:53:00,72.0,64.0,-100.00,North,2,5.0,11.0,75,0.00,,,-99.99,332.000000,,2013-05-12 15:53:00,
2013-05-12 11:02:00,72.0,64.0,-100.00,North,2,5.0,11.0,75,0.00,,,-99.99,332.000000,,2013-05-12 16:02:00,
2013-05-12 11:33:00,76.0,62.0,-100.00,NNW,340,4.0,10.0,63,0.00,,,0.00,761.000000,,2013-05-12 16:33:00,
2013-05-12 11:42:00,76.0,62.0,-100.00,NNW,340,4.0,10.0,63,0.00,,,0.00,761.000000,,2013-05-12 16:42:00,
2013-05-12 11:53:00,76.0,62.0,-100.00,NNW,340,4.0,10.0,63,0.00,,,0.00,761.000000,,2013-05-12 16:53:00,
2013-05-12 12:02:00,76.0,62.0,-100.00,NNW,340,4.0,10.0,63,0.00,,,0.00,761.000000,,2013-05-12 17:02:00,
2013-05-12 12:32:00,77.0,60.0,-100.00,NNW,348,5.0,10.0,55,0.00,,,-99.99,859.000000,,2013-05-12 17:32:00,
2013-05-12 12:42:00,77.0,60.0,-100.00,NNW,348,5.0,10.0,55,0.00,,,-99.99,859.000000,,2013-05-12 17:42:00,
2013-05-12 12:53:00,77.0,60.0,-100.00,NNW,348,5.0,10.0,55,0.00,,,-99.99,859.000000,,2013-05-12 17:53:00,
2013-05-12 13:01:00,77.0,60.0,-100.00,NNW,348,5.0,10.0,55,0.00,,,-99.99,859.000000,,2013-05-12 18:01:00,
2013-05-12 13:32:00,79.0,59.0,-100.00,NNW,333,6.0,10.0,51,0.00,,,0.00,685.000000,,2013-05-12 18:32:00,
2013-05-12 13:42:00,79.0,59.0,-100.00,NNW,333,6.0,10.0,51,0.00,,,0.00,685.000000,,2013-05-12 18:42:00,
2013-05-12 13:52:00,79.0,59.0,-100.00,NNW,333,6.0,10.0,51,0.00,,,0.00,685.000000,,2013-05-12 18:52:00,
2013-05-12 14:01:00,79.0,59.0,-100.00,NNW,333,6.0,10.0,51,0.00,,,0.00,685.000000,,2013-05-12 19:01:00,
2013-05-12 14:32:00,79.0,60.0,-100.00,North,1,8.0,15.0,52,0.00,,,0.00,711.000000,,2013-05-12 19:32:00,
2013-05-12 14:42:00,79.0,60.0,-100.00,North,1,8.0,15.0,52,0.00,,,0.00,711.000000,,2013-05-12 19:42:00,
2013-05-12 14:52:00,79.0,60.0,-100.00,North,1,8.0,15.0,52,0.00,,,0.00,711.000000,,2013-05-12 19:52:00,
2013-05-12 15:02:00,79.0,60.0,-100.00,North,1,8.0,15.0,52,0.00,,,0.00,711.000000,,2013-05-12 20:02:00,
2013-05-12 15:32:00,80.0,59.0,-100.00,North,359,8.0,16.0,49,0.00,,,0.00,812.000000,,2013-05-12 20:32:00,
2013-05-12 15:42:00,80.0,59.0,-100.00,North,359,8.0,16.0,49,0.00,,,0.00,812.000000,,2013-05-12 20:42:00,
2013-05-12 15:52:00,80.0,59.0,-100.00,North,359,8.0,16.0,49,0.00,,,0.00,812.000000,,2013-05-12 20:52:00,
2013-05-12 16:01:00,80.0,59.0,-100.00,North,359,8.0,16.0,49,0.00,,,0.00,812.000000,,2013-05-12 21:01:00,
2013-05-12 16:33:00,78.0,57.0,-100.00,North,355,9.0,16.0,49,0.00,,,0.00,690.000000,,2013-05-12 21:33:00,
2013-05-12 16:42:00,78.0,57.0,-100.00,North,355,9.0,16.0,49,0.00,,,0.00,690.000000,,2013-05-12 21:42:00,
2013-05-12 16:53:00,78.0,57.0,-100.00,North,355,9.0,16.0,49,0.00,,,0.00,690.000000,,2013-05-12 21:53:00,
2013-05-12 17:02:00,78.0,57.0,-100.00,North,355,9.0,16.0,49,0.00,,,0.00,690.000000,,2013-05-12 22:02:00,
2013-05-12 17:33:00,78.0,58.0,-100.00,NNE,14,10.0,17.0,51,0.00,,,0.00,464.000000,,2013-05-12 22:33:00,
2013-05-12 17:42:00,78.0,58.0,-100.00,NNE,14,10.0,17.0,51,0.00,,,0.00,464.000000,,2013-05-12 22:42:00,
2013-05-12 17:52:00,78.0,58.0,-100.00,NNE,14,10.0,17.0,51,0.00,,,0.00,464.000000,,2013-05-12 22:52:00,
2013-05-12 18:02:00,78.0,58.0,-100.00,NNE,14,10.0,17.0,51,0.00,,,0.00,464.000000,,2013-05-12 23:02:00,
2013-05-12 18:32:00,74.0,55.0,-100.00,NNE,13,6.0,16.0,52,0.00,,,0.00,302.000000,,2013-05-12 23:32:00,
2013-05-12 18:42:00,74.0,55.0,-100.00,NNE,13,6.0,16.0,52,0.00,,,0.00,302.000000,,2013-05-12 23:42:00,
2013-05-12 18:52:00,74.0,55.0,-100.00,NNE,13,6.0,16.0,52,0.00,,,0.00,302.000000,,2013-05-12 23:52:00,
2013-05-12 19:01:00,74.0,55.0,-100.00,NNE,13,6.0,16.0,52,0.00,,,0.00,302.000000,,2013-05-13 00:01:00,
2013-05-12 19:32:00,72.0,55.0,-100.00,NNE,20,5.0,11.0,55,0.00,,,0.00,174.000000,,2013-05-13 00:32:00,
2013-05-12 19:42:00,72.0,55.0,-100.00,NNE,20,5.0,11.0,55,0.00,,,0.00,174.000000,,2013-05-13 00:42:00,
2013-05-12 19:52:00,72.0,55.0,-100.00,NNE,20,5.0,11.0,55,0.00,,,0.00,174.000000,,2013-05-13 00:52:00,
2013-05-12 20:01:00,72.0,55.0,-100.00,NNE,20,5.0,11.0,55,0.00,,,0.00,174.000000,,2013-05-13 01:01:00,
2013-05-12 20:32:00,66.0,55.0,-100.00,NNE,15,5.0,10.0,68,0.00,,,0.00,19.000000,,2013-05-13 01:32:00,
2013-05-12 20:42:00,66.0,55.0,-100.00,NNE,15,5.0,10.0,68,0.00,,,0.00,19.000000,,2013-05-13 01:42:00,
2013-05-12 20:52:00,66.0,55.0,-100.00,NNE,15,5.0,10.0,68,0.00,,,0.00,19.000000,,2013-05-13 01:52:00,
2013-05-12 21:01:00,66.0,55.0,-100.00,NNE,15,5.0,10.0,68,0.00,,,0.00,19.000000,,2013-05-13 02:01:00,
2013-05-12 21:32:00,62.0,55.0,-100.00,North,9,4.0,7.0,78,0.00,,,0.00,0.000000,,2013-05-13 02:32:00,
2013-05-12 21:42:00,62.0,55.0,-100.00,North,9,4.0,7.0,78,0.00,,,0.00,0.000000,,2013-05-13 02:42:00,
2013-05-12 21:52:00,62.0,55.0,-100.00,North,9,4.0,7.0,78,0.00,,,0.00,0.000000,,2013-05-13 02:52:00,
2013-05-12 22:02:00,62.0,55.0,-100.00,North,9,4.0,7.0,78,0.00,,,0.00,0.000000,,2013-05-13 03:02:00,
2013-05-12 22:33:00,60.0,54.0,-100.00,North,6,5.0,9.0,82,0.00,,,0.00,0.000000,,2013-05-13 03:33:00,
2013-05-12 22:42:00,60.0,54.0,-100.00,North,6,5.0,9.0,82,0.00,,,0.00,0.000000,,2013-05-13 03:42:00,
2013-05-12 22:53:00,60.0,54.0,-100.00,North,6,5.0,9.0,82,0.00,,,0.00,0.000000,,2013-05-13 03:53:00,
2013-05-12 23:02:00,60.0,54.0,-100.00,North,6,5.0,9.0,82,0.00,,,0.00,0.000000,,2013-05-13 04:02:00,
2013-05-12 23:33:00,59.0,54.0,-100.00,NNE,16,5.0,7.0,84,0.00,,,0.00,0.000000,,2013-05-13 04:33:00,
2013-05-12 23:42:00,59.0,54.0,-100.00,NNE,16,5.0,7.0,84,0.00,,,0.00,0.000000,,2013-05-13 04:42:00,
2013-05-12 23:53:00,59.0,54.0,-100.00,NNE,16,5.0,7.0,84,0.00,,,0.00,0.000000,,2013-05-13 04:53:00,